This demonstration page uses our WeatherBlox Daily Observations layout. Learn more.

Left ArrowRight Arrow

39.92423, -83.80882

Hourly Observations for August 1, 2020

Temp ( °F °C ) Dew Point ( °F °C ) Humidity (%) Winds ( mph kmh ) Pressure ( in mb ) Visibility ( mi km ) Precip ( " mm )
12:56 am 00:56 Cloudy 70 21.1 63 17.2 79 79 ENE 7 11 29.88 1012 10 16 N/A
1:56 am 01:56 Cloudy 70 21.1 65 18.3 84 84 ENE 6 9 29.87 1012 10 16 N/A
2:56 am 02:56 Cloudy 70 21.1 65 18.3 84 84 ENE 6 9 29.86 1011 10 16 N/A
3:56 am 03:56 Cloudy with Light Rain 68 20 68 20 100 100 ENE 6 9 29.84 1011 10 16 0.00 0.00
4:56 am 04:56 Cloudy 69 20.6 67 19.4 93 93 ENE 6 9 29.85 1011 10 16 0.00 0.00
5:56 am 05:56 Cloudy 68 20 68 20 100 100 ENE 5 7 29.85 1011 10 16 N/A
6:56 am 06:56 Cloudy 67 19.4 67 19.4 100 100 ENE 6 9 29.85 1011 10 16 0.00 0.00
7:46 am 07:46 Cloudy with Light Rain 68 20 68 20 100 100 E 6 9 29.84 1011 10 16 0.00 0.00
7:56 am 07:56 Mostly Cloudy 68 20 68 20 100 100 E 6 9 29.86 1011 10 16 0.00 0.00
8:49 am 08:49 Cloudy 70 21 70 21 100 100 E 6 9 29.84 1010 10 16 N/A
8:56 am 08:56 Cloudy 69 20.6 69 20.6 100 100 E 7 11 29.86 1011 10 16 N/A
9:10 am 09:10 Cloudy 70 21 70 21 100 100 ESE 8 13 29.85 1011 10 16 N/A
9:30 am 09:30 Cloudy 70 21 70 21 100 100 E 5 7 29.84 1010 10 16 N/A
9:56 am 09:56 Cloudy 71 21.7 71 21.7 100 100 ESE 6 9 29.85 1011 10 16 N/A
10:13 am 10:13 Cloudy 72 22 72 22 100 100 SE 6 9 29.83 1010 10 16 N/A
10:47 am 10:47 Cloudy with Light Rain 73 23 73 23 100 100 SE 6 9 29.84 1011 10 16 0.00 0.00
10:56 am 10:56 Cloudy 74 23.3 74 23.3 100 100 SE 8 13 29.86 1011 10 16 0.00 0.00
11:15 am 11:15 Cloudy 75 24 73 23 94 94 SE 6 9 29.83 1010 10 16 N/A
11:56 am 11:56 Cloudy 76 24.4 75 23.9 97 97 SSE 7 11 29.86 1011 10 16 N/A
12:26 pm 12:26 Cloudy 79 26 75 24 89 89 VRB 6 9 29.82 1010 10 16 N/A
12:34 pm 12:34 Mostly Cloudy 79 26 73 23 84 84 S 5 7 29.82 1010 10 16 N/A
12:44 pm 12:44 Cloudy 79 26 73 23 84 84 SW 5 7 29.81 1009 10 16 N/A
12:56 pm 12:56 Cloudy 81 27.2 75 23.9 82 82 VRB 3 6 29.84 1010 10 16 N/A
1:28 pm 13:28 Cloudy 81 27 73 23 79 79 VRB 3 6 29.80 1009 10 16 N/A
1:48 pm 13:48 Cloudy 81 27 73 23 79 79 S 5 7 29.79 1009 10 16 N/A
1:56 pm 13:56 Cloudy 82 27.8 73 22.8 74 74 S 8 13 29.81 1010 10 16 N/A
2:35 pm 14:35 Mostly Cloudy 82 28 73 23 74 74 SSE 9 15 29.76 1008 10 16 N/A
2:42 pm 14:42 Partly Cloudy 82 28 75 24 79 79 SSE 7 11 29.76 1008 10 16 N/A
2:56 pm 14:56 Partly Cloudy 82 27.8 74 23.3 77 77 VRB 7 11 29.80 1009 10 16 N/A
3:56 pm 15:56 Mostly Cloudy 83 28.3 75 23.9 77 77 SSE 7 11 29.77 1008 10 16 N/A
4:47 pm 16:47 Cloudy with Rain 75 24 73 23 94 94 SSE 5 7 29.75 1007 9 14 0.01 0.25
4:56 pm 16:56 Cloudy with Light Rain 75 23.9 74 23.3 96 96 N N/A 29.76 1008 10 16 0.01 0.25
5:11 pm 17:11 Partly Cloudy with Nearby Thunderstorms 77 25 77 25 100 100 W 3 6 29.73 1007 10 16 0.00 0.00
5:26 pm 17:26 Mostly Cloudy with Light Rain 75 24 75 24 100 100 N N/A 29.75 1007 8 13 0.01 0.25
5:56 pm 17:56 Cloudy 78 25.6 77 25 97 97 N N/A 29.76 1008 10 16 0.01 0.25
6:42 pm 18:42 Cloudy with Heavy Rain 75 24 75 24 100 100 VRB 3 6 29.73 1007 2 3 0.18 4.57
6:49 pm 18:49 Cloudy with Light Rain 75 24 75 24 100 100 W 5 7 29.74 1007 2 3 0.21 5.33
6:52 pm 18:52 Cloudy with Rain 75 24 75 24 100 100 W 8 13 29.74 1007 3 5 0.22 5.59
6:56 pm 18:56 Cloudy with Nearby Thunderstorms 74 23.3 74 23.3 100 100 SW 12 19 29.77 1008 4 6 0.23 5.84
6:58 pm 18:58 Cloudy with Nearby Thunderstorms 73 23 73 23 100 100 W 18 30 29.75 1007 5 8 0.01 0.25
7:12 pm 19:12 Cloudy with Nearby Thunderstorms 72 22 72 22 100 100 WNW 8 13 29.75 1008 9 14 0.02 0.51
7:22 pm 19:22 Cloudy with Rain 72 22 72 22 100 100 VRB 3 6 29.75 1008 10 16 0.03 0.76
7:31 pm 19:31 Cloudy with Light Rain 72 22 72 22 100 100 N N/A 29.75 1008 10 16 0.03 0.76
7:56 pm 19:56 Mostly Cloudy 72 22.2 72 22.2 100 100 N N/A 29.76 1008 10 16 0.03 0.76
8:56 pm 20:56 Mostly Cloudy 72 22.2 72 22.2 100 100 S 3 6 29.77 1008 10 16 0.49 12.45
9:56 pm 21:56 Cloudy 72 22.2 72 22.2 100 100 SSE 5 7 29.77 1008 10 16 0.02 0.51
10:56 pm 22:56 Cloudy with Light Rain 71 21.7 71 21.7 100 100 SSW 3 6 29.77 1008 10 16 0.02 0.51
11:56 pm 23:56 Cloudy 71 21.7 71 21.7 100 100 S 6 9 29.76 1008 10 16 0.00 0.00

Powered by AerisWeather